Simultaneous Nadir Overpasses (SNOs) Predictions

Prediction of SNOs between NOAA-19 and TERRA Satellite Orbit:

Table of predicted SNOs for the next 14.0 days since TLE Epoch: 12/28/2024
Index Date (NOAA-19) Time (NOAA-19) Lat,Lon (NOAA-19) SZA (NOAA-19 ) Date (TERRA) Time (TERRA) Lat,Lon (TERRA) SZA (TERRA ) Distance(km) Time Diff (sec)
1 12/30/2024 03:16:23 -45.01, -76.29 107.43 12/30/2024 03:15:32 -45.15, -77.17 106.95 70.87 51
2 01/01/2025 05:49:37 -45.09, 47.24 43.41 01/01/2025 05:49:45 -45.24, 48.00 42.90 62.39 8
3 01/03/2025 08:48:06 -45.06, 2.67 43.67 01/03/2025 08:48:21 -45.20, 3.33 43.21 53.75 15
4 01/05/2025 11:46:36 -45.10, -41.92 43.97 01/05/2025 11:46:57 -45.21, -41.36 43.56 45.31 21
5 01/07/2025 14:45:05 -45.10, -86.49 44.28 01/07/2025 14:45:32 -45.19, -86.04 43.91 37.00 27
6 01/09/2025 17:43:33 -45.06,-131.05 44.57 01/09/2025 17:44:05 -45.11,-130.69 44.25 28.75 32



Historial Predications of SNOs between NOAA-19 and TERRA
